Wind_Speed
15 15 14 14 13 12 11 11 10 11 11 11 11 12 13 14 14 14 12 10 8 8 8 9 9 9 10 11 12 12 13 12 11 11 8 6 7 8 7 4 5 5 3 4 6 6 7 7 8 11 7 3 1 3 2 2 2 2 2 1 3 4 4 4 5 5 4 5 7 7 5 5 8 10 8 9 12 8 8 9 4 0 2 7 13 21 21 17
16 16 15 14 14 12 11 10 10 11 11 11 12 12 13 14 14 13 11 10 8 7 7 8 9 9 9 10 12 13 13 13 12 11 10 7 5 5 4 3 4 4 4 5 6 5 4 4 5 10 4 2 1 2 1 1 2 2 3 2 4 5 5 6 7 7 4 5 6 7 4 5 6 7 6 8 12 10 12 11 5 4 6 5 8 17 15 7
17 16 16 15 14 13 11 11 11 11 11 12 12 13 14 14 13 12 11 9 8 7 6 8 9 9 9 9 10 11 11 10 7 7 7 5 4 5 2 3 3 4 5 6 8 6 5 8 8 5 2 3 3 2 2 2 1 2 3 2 6 6 5 6 8 7 5 5 4 7 4 4 5 5 4 6 9 7 8 5 4 5 8 8 10 16 17 6
17 17 16 15 15 13 12 12 12 11 12 12 13 14 14 14 13 11 10 8 8 6 6 7 9 9 9 9 9 8 8 6 3 5 4 3 6 5 0 2 4 4 6 7 10 10 10 12 9 3 3 3 3 3 3 3 1 2 4 5 7 5 5 7 7 5 4 4 1 6 6 5 5 3 3 5 7 5 4 5 2 7 10 11 10 13 16 11
18 18 17 16 15 15 14 13 12 11 12 12 13 14 15 14 12 11 9 8 7 5 5 7 9 10 10 10 7 6 6 4 3 6 5 5 4 1 3 5 4 5 6 8 10 12 13 9 4 1 1 2 2 1 3 6 4 2 3 8 8 2 3 8 7 4 4 1 1 4 6 5 2 2 3 4 4 3 1 5 3 7 11 12 13 13 14 15
18 18 17 17 17 16 15 14 13 12 12 13 14 15 15 13 11 9 7 7 6 5 6 7 9 10 10 9 6 4 2 1 5 6 3 2 1 3 3 3 4 5 7 10 11 10 9 6 4 2 1 1 1 2 5 5 5 4 4 5 7 5 3 5 4 4 4 2 2 0 3 4 3 3 3 1 3 5 1 1 1 5 10 12 8 6 12 14
18 18 18 18 17 16 15 15 14 14 13 14 14 15 14 12 9 7 6 6 6 6 6 8 10 10 10 8 4 2 3 3 9 7 1 2 4 2 1 3 5 7 9 9 7 4 4 4 3 1 1 2 2 4 5 5 2 5 3 4 4 5 3 4 4 4 3 3 4 2 2 5 4 3 2 2 6 6 2 3 2 2 5 13 9 2 7 10
19 18 18 18 18 16 15 15 15 15 14 14 15 14 13 10 7 5 5 5 5 6 7 8 10 10 11 6 2 3 1 5 7 8 4 5 3 1 3 5 6 8 10 10 7 4 3 2 2 1 3 3 2 2 4 4 2 2 1 4 3 2 3 5 5 5 6 5 4 4 4 5 6 3 2 5 7 7 1 5 4 7 7 9 11 6 5 6
20 19 19 18 18 18 16 15 16 15 15 14 14 13 11 8 5 4 4 4 5 6 8 9 9 9 10 4 2 3 4 5 7 9 6 5 3 1 2 4 5 8 9 11 10 7 5 2 1 2 1 3 3 6 6 4 3 2 2 2 3 5 6 5 4 5 6 5 3 6 6 7 6 2 3 6 6 8 1 6 6 10 10 7 8 6 5 3
22 21 20 19 19 19 18 16 16 16 16 14 14 11 9 6 4 3 3 4 4 7 8 8 9 8 7 4 4 3 4 5 7 9 5 3 3 3 5 3 5 8 9 10 9 6 4 1 1 0 1 2 4 6 6 3 2 5 4 3 5 6 6 4 5 7 5 4 3 3 5 7 5 2 4 6 6 6 2 9 10 11 9 8 7 4 4 2
23 22 21 20 20 20 19 18 17 17 17 15 13 10 7 5 3 2 4 4 4 6 8 8 9 8 5 3 3 2 5 3 7 9 5 5 7 7 7 5 5 7 9 9 8 8 7 4 2 3 2 1 3 6 6 3 4 6 5 5 7 7 7 6 6 8 4 4 4 4 4 6 5 2 5 6 6 3 7 11 12 12 7 7 6 4 4 3
25 23 22 21 21 21 20 20 19 19 17 15 13 9 6 4 3 3 5 5 5 6 8 8 8 6 4 1 3 6 5 4 7 9 7 8 10 9 7 7 7 6 7 5 7 9 8 7 6 4 1 1 3 4 5 6 6 6 4 4 7 7 7 9 7 8 4 3 4 3 3 7 4 6 8 7 2 6 11 11 11 11 6 5 5 5 4 5
27 24 23 22 22 22 21 21 20 19 18 15 12 8 6 5 4 5 6 6 6 8 8 8 8 5 3 1 6 9 8 7 8 11 9 10 13 12 11 11 9 6 6 5 6 6 5 5 5 2 2 1 2 3 4 7 5 5 4 2 5 6 6 9 6 7 4 3 3 4 1 7 6 9 11 7 3 10 10 8 9 9 7 5 7 8 8 8
28 25 23 22 22 22 22 21 20 19 17 14 11 8 6 6 5 6 7 8 8 9 10 9 7 2 2 4 12 13 11 8 8 13 12 12 12 8 8 10 12 9 8 9 8 4 5 6 3 2 1 1 2 3 5 6 3 4 5 2 2 2 5 9 5 3 3 3 3 7 1 6 8 11 10 3 7 11 8 7 8 7 8 8 10 11 9 8
28 26 24 23 22 22 22 22 21 19 16 14 11 9 8 7 7 8 8 9 10 12 11 9 5 1 1 6 12 11 8 8 9 13 12 10 8 4 5 5 13 12 11 12 10 5 4 5 1 1 2 2 1 4 5 4 4 3 2 4 2 1 5 9 6 5 6 3 3 6 2 5 7 9 8 2 7 10 7 6 7 8 11 13 12 11 10 8
28 27 25 23 22 22 22 21 21 19 16 14 12 9 8 8 9 9 9 10 12 12 10 6 2 1 2 5 8 7 6 8 7 9 9 8 5 3 3 2 7 9 9 14 13 8 3 1 1 2 1 3 3 3 4 4 5 3 0 3 3 2 4 6 6 3 5 2 2 2 2 2 5 6 7 4 5 9 8 6 8 11 12 13 11 9 10 8
27 27 25 23 22 21 21 21 20 19 16 14 11 9 8 8 11 12 12 10 10 10 6 3 0 2 2 6 7 6 6 9 9 5 4 7 5 3 4 2 4 6 6 9 10 6 2 1 0 0 1 2 3 4 4 4 4 4 2 1 4 3 2 4 6 6 3 2 1 2 3 4 5 6 6 6 4 4 7 6 8 11 10 10 10 10 9 9
26 27 26 23 22 21 21 20 19 18 16 14 11 11 10 9 13 14 12 9 7 5 2 2 1 3 2 6 5 3 2 5 10 6 4 6 8 7 7 3 4 5 6 4 3 2 1 1 1 1 3 3 2 5 2 4 4 3 2 1 3 3 2 4 4 5 3 1 2 4 4 6 7 7 6 4 3 4 5 7 9 11 11 10 9 10 9 10
26 26 26 24 21 20 19 19 19 18 16 14 12 11 9 9 10 7 5 5 2 1 1 2 2 2 3 6 5 4 2 3 8 7 4 4 8 10 9 6 3 3 3 3 2 3 2 1 2 1 3 4 3 4 6 8 5 4 3 3 3 3 4 5 4 5 2 1 3 5 6 7 6 6 6 2 3 6 6 9 11 10 10 9 8 8 10 10
25 25 25 24 21 19 18 18 19 18 17 16 17 11 6 8 6 3 5 4 3 5 6 6 5 4 7 7 4 2 2 4 6 6 5 5 6 5 4 4 1 2 2 2 3 2 3 3 3 5 7 7 8 8 8 7 4 1 1 1 3 3 4 5 4 6 2 2 4 4 4 6 6 7 6 1 5 8 9 9 9 8 9 8 9 8 9 9
25 25 25 24 21 19 17 18 18 17 16 17 17 8 2 5 3 3 6 5 9 11 10 11 10 10 13 15 14 6 1 1 3 5 8 7 3 1 3 1 1 2 4 4 3 1 3 4 8 10 11 10 9 8 6 2 2 3 3 3 5 3 5 6 4 5 1 2 4 1 1 6 7 7 5 2 7 8 10 10 8 8 8 6 9 9 8 7
26 25 25 24 22 18 16 18 16 13 15 15 11 4 0 6 6 7 5 5 9 10 10 12 11 11 16 20 19 7 3 1 5 6 8 5 2 2 2 1 1 3 4 2 2 2 1 5 12 13 10 8 5 2 3 3 4 4 3 2 3 3 4 5 5 5 1 3 4 2 1 5 6 5 4 6 8 7 9 11 9 9 9 7 7 7 7 7
26 25 25 24 23 19 16 16 11 11 16 11 6 5 6 10 12 11 5 3 8 6 7 8 7 8 10 10 9 5 3 2 3 6 5 6 3 2 2 1 2 3 3 2 1 2 2 6 13 12 8 6 2 3 4 4 3 2 3 2 4 4 2 4 5 5 3 1 2 1 2 4 5 5 5 6 6 6 7 9 8 8 10 9 8 7 7 9
26 26 25 25 24 19 16 13 7 13 15 6 4 8 10 12 13 12 5 2 6 5 7 9 7 5 5 3 5 6 2 3 3 3 3 5 2 0 2 2 2 3 4 4 3 4 6 9 7 3 5 5 2 3 2 2 3 2 4 4 4 3 1 4 4 4 4 3 0 3 4 4 4 4 3 4 5 6 6 8 8 6 8 8 8 8 9 10
26 26 25 26 24 21 16 8 6 15 13 4 5 11 14 14 13 10 4 1 4 5 5 5 4 3 2 5 7 6 1 2 3 4 6 7 4 1 0 1 2 3 4 5 5 4 7 8 2 5 4 5 4 3 2 3 1 3 2 2 2 1 1 1 3 3 4 5 3 3 2 5 5 3 2 1 5 5 4 7 8 6 6 7 8 9 10 10
27 26 25 25 24 24 15 3 7 17 8 3 8 15 17 16 12 8 3 3 4 5 2 0 1 2 3 3 4 3 5 3 4 5 7 6 5 4 1 2 1 2 3 4 4 3 4 4 2 5 4 3 3 1 2 5 3 1 3 2 4 4 3 2 3 3 2 2 4 1 3 4 4 4 4 2 7 5 3 5 7 6 6 6 7 9 9 9
27 26 26 25 24 24 12 2 11 12 2 4 11 17 20 15 9 4 3 4 4 4 2 1 1 2 4 4 3 6 2 4 4 1 5 7 4 3 2 2 1 2 2 2 3 2 2 3 4 5 4 4 4 2 3 2 5 2 6 1 4 3 2 3 2 1 2 3 4 3 3 2 3 5 3 5 8 6 4 5 4 5 6 7 8 9 9 9
28 27 26 24 23 20 9 6 11 7 3 7 12 18 18 10 4 2 5 3 3 2 0 1 1 0 2 3 4 3 3 4 1 3 6 10 4 4 1 5 3 4 3 3 2 6 1 1 2 4 4 3 2 3 4 3 3 5 6 1 2 1 2 2 2 2 1 1 5 4 3 2 3 5 1 5 7 5 6 6 5 6 6 7 8 9 10 9
28 27 26 24 23 16 8 8 9 5 6 8 13 18 13 4 3 4 5 1 3 1 1 0 1 1 0 1 2 3 3 2 2 4 4 6 4 3 2 5 4 4 4 5 4 6 3 3 6 6 4 3 4 6 3 5 2 5 4 3 4 3 2 2 1 1 2 2 5 4 2 2 3 4 2 2 4 5 6 5 5 6 7 7 8 9 10 9
28 26 25 24 22 14 10 11 7 4 7 10 16 16 7 2 4 5 3 1 3 2 0 1 1 1 2 1 2 4 4 3 2 2 1 1 1 2 2 1 3 1 3 1 4 6 4 2 3 4 4 5 5 4 3 3 2 3 3 3 4 5 4 4 2 3 3 2 6 4 4 4 2 4 4 4 4 7 6 3 3 5 7 7 8 9 9 8
28 25 23 22 20 12 8 7 4 4 8 12 16 10 2 3 4 5 0 3 3 3 2 1 2 2 1 1 3 3 4 3 1 3 2 2 2 3 2 3 3 3 4 4 3 5 3 0 2 2 4 4 4 0 3 2 3 3 2 1 3 4 4 4 4 4 3 3 6 5 5 5 3 4 4 5 5 8 8 5 5 6 7 7 7 8 8 8
28 25 22 19 17 12 8 6 5 5 8 12 12 4 4 3 2 2 2 3 2 3 3 2 3 4 3 3 3 3 3 2 2 2 3 2 1 1 1 2 2 2 3 3 3 5 4 2 4 2 2 4 5 1 4 5 5 5 4 5 3 3 3 2 3 2 1 4 5 5 4 3 4 5 5 5 4 6 7 7 7 7 7 7 7 7 7 6
29 27 23 18 16 15 13 9 5 4 7 11 7 3 5 3 1 2 3 2 1 2 3 2 4 7 5 4 3 2 1 2 2 2 3 2 1 2 3 6 6 4 2 3 1 4 4 5 4 1 0 1 5 4 1 2 3 3 3 3 2 1 1 2 3 2 2 5 5 5 4 2 3 4 5 3 4 6 7 7 7 6 8 8 7 7 6 6
28 26 24 20 17 15 10 6 4 4 7 8 3 5 5 2 2 3 2 2 2 2 2 3 7 8 4 3 4 2 1 2 2 0 2 1 2 2 4 4 5 5 2 1 1 1 2 3 4 1 1 1 2 4 5 4 1 1 4 4 3 3 3 2 3 2 3 4 5 3 3 3 2 3 6 3 3 3 4 5 5 7 8 7 7 7 6 6
27 25 24 19 14 9 3 5 6 4 5 3 4 4 3 1 3 1 1 3 2 2 4 5 5 4 3 4 3 1 2 1 1 2 1 1 1 3 2 1 2 4 3 2 0 1 3 3 6 3 2 1 3 3 5 5 1 2 2 5 1 3 5 2 3 4 2 2 3 2 2 2 2 3 5 4 5 5 5 3 4 6 6 7 7 6 6 5
28 25 20 14 11 5 3 6 6 5 2 3 5 2 2 3 2 2 2 2 2 3 4 5 3 1 3 4 3 4 4 2 3 4 2 2 1 2 1 1 2 2 4 4 1 0 2 3 7 5 4 3 4 3 4 4 2 2 2 1 3 4 6 2 2 2 2 1 3 1 1 3 1 2 5 4 5 5 5 5 5 4 5 6 6 6 5 5
28 23 16 12 10 2 6 5 6 5 1 5 4 1 3 2 2 2 1 2 3 3 2 2 2 1 3 3 3 5 5 4 4 4 3 2 2 3 1 3 5 3 2 3 2 2 3 2 7 4 4 7 7 1 1 2 4 3 1 4 2 2 3 3 0 3 3 0 4 1 2 2 1 2 4 3 2 2 2 3 5 3 5 5 3 5 6 6
22 16 10 9 9 5 5 5 7 4 4 5 1 2 2 1 1 2 1 2 3 3 3 0 2 1 2 2 3 5 4 2 3 4 3 2 3 2 1 2 4 4 1 3 2 1 3 1 6 3 2 6 6 4 2 3 2 4 3 2 2 2 1 1 2 0 1 1 3 3 2 3 3 3 4 5 6 5 4 3 3 3 5 4 4 4 6 6
13 8 5 4 7 6 5 8 6 3 5 3 1 2 1 1 2 3 3 3 2 2 1 1 1 2 1 1 2 4 3 2 2 2 1 1 3 2 2 1 1 2 2 5 3 1 3 2 5 4 3 4 5 3 1 4 4 3 2 2 1 3 3 1 1 2 2 2 2 3 3 3 4 5 7 9 8 7 6 5 4 4 5 5 5 5 5 5
7 3 3 3 8 5 4 6 3 5 3 1 2 2 1 0 2 4 6 6 3 1 1 1 2 2 2 2 2 2 2 2 2 1 1 2 2 3 4 2 1 0 3 6 4 1 3 3 3 5 4 3 2 1 2 4 3 1 3 2 2 1 1 0 1 1 3 2 2 1 2 4 5 4 7 10 8 7 7 6 5 5 5 6 6 5 5 6
4 2 2 4 7 5 3 2 3 3 2 1 1 1 1 0 1 3 6 6 3 1 1 3 3 3 2 3 3 2 3 2 1 1 1 2 3 2 3 3 1 1 3 6 3 1 1 1 2 3 4 1 3 5 3 4 4 4 3 1 1 0 2 1 3 3 1 2 3 3 2 6 5 3 6 8 7 7 7 7 6 6 7 7 6 6 6 6
3 2 5 10 16 11 4 3 2 0 1 2 1 1 1 0 2 3 4 5 3 3 3 4 3 3 2 2 2 3 3 1 1 1 1 1 2 1 4 6 5 1 3 2 1 2 2 3 1 2 3 4 8 7 3 2 2 5 3 1 2 2 3 4 2 3 2 1 2 1 2 6 5 3 5 6 6 7 7 7 7 6 7 7 6 5 6 6
2 4 8 17 20 6 5 3 4 2 1 3 0 1 0 1 2 2 3 3 3 3 3 3 4 4 3 4 3 2 3 1 2 1 1 2 3 4 7 11 10 5 3 1 2 1 1 3 1 3 3 5 7 5 3 5 5 4 2 1 1 0 2 4 4 2 1 3 1 1 2 5 5 2 3 4 5 6 6 7 7 6 6 6 5 6 6 6
2 4 6 16 21 7 5 2 3 3 4 4 3 3 3 2 1 1 1 0 1 2 2 1 2 2 3 6 4 2 2 0 1 2 2 2 3 5 8 12 11 6 2 1 2 1 1 0 2 2 4 6 7 4 4 6 4 2 2 2 2 2 2 2 1 2 1 3 3 2 3 5 5 2 2 1 2 4 6 7 7 6 6 5 5 5 6 5
3 2 4 12 18 10 4 2 1 2 4 4 4 3 3 2 1 1 0 1 1 2 2 1 1 1 2 4 4 3 2 2 0 3 3 2 3 4 7 10 9 5 4 6 2 2 0 1 3 2 0 2 3 2 2 3 3 1 2 3 3 3 2 1 0 2 2 3 4 4 4 5 5 3 3 2 0 3 5 6 5 5 6 5 5 5 5 5
2 2 3 7 9 7 2 1 4 3 3 3 3 3 2 2 2 1 1 2 2 1 1 1 0 0 2 4 4 3 2 2 1 1 3 3 3 3 6 9 8 6 8 8 4 2 2 1 3 5 5 5 6 6 5 2 2 3 4 5 6 6 5 2 2 3 4 3 3 4 6 6 7 4 3 5 1 1 3 5 4 5 5 4 5 5 5 4
1 1 2 3 4 4 4 4 5 4 4 3 1 2 2 2 2 2 2 2 2 2 2 2 2 2 2 2 2 2 3 2 1 1 3 3 3 5 7 7 6 7 9 7 4 3 3 1 2 6 7 8 8 8 6 3 3 5 6 7 8 8 5 3 4 5 5 3 4 6 7 6 7 7 7 5 1 1 3 5 6 6 5 4 5 5 4 3
1 0 0 1 1 2 3 4 6 6 7 5 2 3 3 2 1 1 2 1 1 3 3 2 4 4 1 1 1 1 3 4 2 2 2 3 4 6 7 5 4 7 8 5 4 3 3 2 4 5 5 7 7 7 7 5 5 5 6 8 10 10 9 7 8 9 6 5 7 8 8 8 8 7 8 6 4 4 6 7 6 5 5 5 6 5 5 5
2 1 2 2 0 2 4 6 6 6 7 6 3 2 2 1 1 1 1 2 2 2 2 0 2 3 3 2 0 1 1 2 2 2 2 3 4 4 4 4 4 4 4 2 2 3 2 2 3 3 3 5 5 6 7 5 4 5 6 9 9 10 11 10 9 9 9 9 10 8 8 9 8 7 8 8 7 7 6 5 4 5 6 6 6 6 5 4
1 1 3 2 1 3 4 4 4 4 5 4 3 3 3 3 3 4 1 2 0 1 2 2 1 3 3 2 1 1 2 1 3 4 2 3 4 2 2 3 3 2 3 1 1 2 1 2 2 1 1 4 5 5 5 4 4 5 7 9 8 9 9 7 6 6 6 7 8 6 6 8 7 6 7 7 7 5 5 5 5 6 7 6 5 5 4 3
3 2 2 1 2 3 3 3 3 2 3 3 2 3 3 4 5 4 3 1 3 2 2 2 1 3 2 2 2 3 4 4 5 7 5 3 4 3 3 4 4 4 4 2 1 2 3 1 2 2 1 4 4 4 6 6 4 6 9 9 9 8 6 5 5 5 5 5 3 1 3 6 6 4 4 4 5 6 7 7 6 5 6 6 6 5 4 3
6 4 3 1 1 3 3 3 3 2 1 2 3 3 2 4 5 4 3 2 4 5 3 3 2 1 1 2 3 4 5 6 8 8 6 6 7 6 6 8 9 8 6 3 2 3 3 2 0 1 1 4 3 3 4 5 5 6 7 7 5 4 3 3 4 4 4 5 4 3 5 6 4 4 4 4 5 7 7 6 5 5 6 6 5 4 3 4
Wind_Direction
354 352 350 349 347 345 342 339 340 341 345 348 348 347 345 347 347 346 343 342 343 345 352 357 0 355 343 340 335 331 331 330 324 315 300 285 280 276 278 260 239 259 268 287 319 341 331 328 335 335 324 301 218 223 267 181 163 87 117 190 241 226 217 214 227 238 239 267 294 314 329 4 3 339 329 352 350 351 358 3 45 44 99 154 162 148 148 163
354 352 351 350 348 345 341 337 337 338 340 342 343 342 342 343 343 343 339 338 339 342 355 357 2 359 346 342 335 332 332 328 325 305 280 273 286 287 274 259 245 250 265 292 318 343 334 304 332 343 328 181 257 218 245 246 164 147 151 183 232 217 214 220 235 251 273 278 293 302 317 32 2 332 343 1 348 9 30 359 342 26 33 69 110 121 123 132
355 354 353 352 348 345 341 336 333 331 333 336 336 338 338 339 339 339 335 333 334 341 356 356 0 0 354 349 341 338 334 333 326 293 276 267 302 321 286 237 237 239 267 293 310 311 287 283 294 314 253 202 250 204 188 250 196 193 166 198 237 222 231 239 237 244 254 247 283 303 319 42 342 334 1 358 349 23 52 338 305 66 70 83 80 102 117 100
356 357 356 354 351 348 344 336 332 327 328 330 331 333 333 334 336 334 332 328 329 342 356 354 356 358 357 350 346 343 340 351 320 280 269 281 317 332 37 170 205 232 266 289 301 302 299 291 281 239 189 220 248 174 184 225 217 203 170 208 238 208 228 256 252 248 241 218 249 314 335 2 322 333 12 11 354 4 48 322 300 127 128 128 127 128 133 131
358 358 357 356 354 352 348 340 334 328 325 326 327 328 328 331 333 331 330 327 327 342 353 353 352 355 357 348 340 337 359 36 298 279 261 283 319 305 129 134 183 235 267 287 298 306 312 305 306 7 179 234 280 94 222 220 182 221 228 224 238 196 222 260 265 270 255 254 28 346 336 316 304 341 355 34 346 310 40 334 333 151 157 155 154 149 149 152
358 358 358 357 354 351 347 343 338 331 326 326 324 324 326 328 329 330 330 327 328 340 352 352 349 355 356 346 335 334 56 86 277 277 274 280 160 149 121 137 203 260 272 286 298 310 322 333 9 0 250 272 261 223 256 250 178 206 273 234 228 216 226 265 285 271 242 291 323 301 303 296 16 352 298 32 276 259 213 15 337 199 174 151 135 148 161 163
0 360 360 356 352 349 345 344 340 334 329 326 324 323 324 325 329 333 332 329 328 339 350 350 348 356 357 347 337 6 126 246 264 255 279 120 149 131 26 281 270 282 283 292 296 306 331 330 322 249 113 10 256 222 257 282 165 165 254 269 243 225 231 295 314 301 266 261 255 224 322 316 333 322 287 290 272 265 271 71 34 299 152 133 121 183 175 159
3 2 1 355 352 349 345 343 340 337 333 328 325 323 323 324 329 334 337 331 327 337 344 347 348 354 357 356 1 7 231 246 238 216 178 125 140 31 333 304 294 290 291 291 279 269 293 295 303 54 54 335 301 321 308 320 5 106 238 272 289 286 287 303 309 321 313 290 272 301 321 288 275 273 257 271 277 277 286 79 54 41 59 115 128 152 158 158
6 4 2 357 354 352 347 342 342 341 337 332 328 325 323 321 328 338 336 326 328 335 337 342 344 351 357 4 73 12 273 236 196 182 165 137 122 65 301 310 303 299 298 294 287 270 260 238 352 54 76 293 347 350 332 349 331 303 291 285 337 321 306 308 304 309 307 305 318 315 304 278 277 315 285 264 266 277 311 87 78 63 53 74 101 116 125 155
7 5 2 359 357 353 349 345 346 345 342 337 333 328 323 318 322 331 320 318 325 329 335 339 337 347 357 21 65 16 269 234 193 182 177 160 152 221 257 277 286 290 285 291 308 298 270 243 285 116 137 299 356 338 325 359 298 287 307 351 342 315 307 308 294 292 292 294 269 248 270 277 299 357 279 272 274 279 36 73 77 70 61 80 91 93 77 51
9 7 4 2 359 355 352 348 348 349 346 342 338 330 319 311 302 306 302 307 320 333 340 336 334 342 355 61 94 259 250 234 202 193 212 221 204 223 249 247 243 263 266 277 313 329 338 339 354 57 57 339 345 328 308 301 320 311 327 347 322 322 321 307 298 291 286 290 242 190 260 293 337 315 251 271 290 321 63 66 73 80 81 94 99 110 96 81
9 7 5 4 1 357 354 351 349 350 348 344 339 328 313 295 277 283 291 300 317 336 341 339 342 347 353 73 196 246 259 262 230 211 225 234 231 242 254 239 218 233 256 271 302 320 335 343 29 55 257 336 352 326 307 314 332 312 318 321 307 345 326 292 290 273 250 282 250 150 315 308 320 263 261 274 269 72 72 76 83 88 87 90 85 81 74 76
9 6 5 4 2 358 354 351 350 349 349 345 338 326 304 279 270 273 282 296 306 326 336 342 342 339 9 318 251 275 292 281 235 220 234 245 249 259 259 237 217 234 252 254 274 301 324 333 30 54 242 37 312 277 317 327 331 307 331 329 307 2 319 279 279 257 230 262 231 117 309 289 284 265 272 271 136 87 76 81 89 95 90 72 66 66 51 45
9 6 3 2 1 358 353 351 350 348 348 343 335 320 294 273 272 270 277 289 301 319 327 334 332 314 94 267 280 293 290 276 233 227 240 243 249 281 292 236 221 237 242 246 256 269 305 303 345 12 277 165 251 306 340 335 341 325 339 351 337 14 290 288 289 202 156 234 155 105 190 269 288 288 292 276 109 90 87 84 83 94 90 74 69 77 70 50
7 5 3 1 360 357 354 351 349 347 347 342 332 315 293 278 275 275 280 292 306 314 316 327 315 259 47 287 296 306 270 251 236 233 233 237 254 318 356 233 228 239 237 244 252 246 275 292 345 80 280 300 18 358 341 336 346 340 319 313 330 194 267 298 296 165 149 220 127 107 238 278 291 296 314 1 105 95 90 85 86 82 81 85 81 84 84 67
5 5 2 359 358 357 354 351 348 346 347 342 331 315 299 291 288 286 289 298 308 306 305 324 310 139 17 283 305 317 247 230 226 221 216 228 261 286 307 289 250 254 245 243 245 247 262 321 98 158 256 331 48 44 9 355 334 342 61 265 283 277 283 312 306 233 176 173 64 121 206 280 296 299 324 352 84 102 102 91 81 77 81 91 88 85 86 79
3 3 1 358 357 357 354 352 348 346 349 346 333 317 304 297 295 292 293 300 306 302 286 272 96 80 285 269 300 301 238 224 219 227 249 228 229 265 271 288 275 284 289 256 243 254 307 37 254 227 6 8 96 90 33 341 297 313 3 271 270 275 282 300 310 293 223 156 221 200 190 228 264 285 314 353 24 99 119 102 77 76 81 87 88 86 81 79
1 1 0 358 356 356 356 353 347 345 349 348 334 317 315 313 301 293 294 298 302 315 301 247 30 59 277 268 274 264 255 213 205 233 282 207 207 237 243 240 267 296 333 328 249 240 349 4 32 11 343 347 87 112 146 246 226 256 297 337 296 287 285 282 293 295 279 264 235 201 221 251 266 285 298 337 47 102 112 95 81 84 85 86 90 91 89 87
359 358 359 357 354 356 356 352 346 341 344 351 345 330 337 343 321 306 319 327 322 327 294 251 147 131 279 275 238 233 308 212 197 226 253 190 215 233 231 237 263 282 342 13 298 239 184 356 13 345 288 270 235 181 195 227 216 213 211 175 228 260 284 270 259 268 251 27 277 220 228 254 267 280 285 271 117 94 90 95 95 99 100 102 101 96 100 99
357 356 357 356 353 352 354 352 343 337 339 348 354 355 10 7 353 350 353 343 238 232 248 239 204 229 281 286 270 294 313 231 208 224 236 227 228 235 237 236 268 315 281 233 263 265 153 187 245 232 233 233 239 224 204 221 233 254 295 243 251 254 276 267 261 276 196 128 269 236 238 272 272 274 280 200 104 81 90 102 104 111 109 113 113 107 105 105
355 354 354 354 351 348 351 350 340 336 341 349 359 14 59 12 354 303 318 295 256 244 245 246 234 243 257 263 273 290 35 237 260 261 253 244 202 141 286 255 57 299 263 234 252 312 129 192 234 229 227 225 227 218 191 201 324 338 322 305 303 287 269 265 264 283 88 107 281 259 36 297 289 292 310 89 108 106 118 118 114 112 104 105 110 109 110 109
354 353 351 350 349 346 345 345 340 342 354 359 10 40 355 352 343 315 313 292 276 246 235 253 250 251 255 258 262 254 102 352 304 294 259 236 153 159 271 29 58 261 273 287 300 335 142 223 240 235 229 228 225 181 72 22 359 329 305 308 300 275 276 288 292 297 34 96 276 296 33 285 286 316 7 92 121 138 137 127 128 121 107 103 103 108 110 96
352 350 349 348 346 345 342 344 344 353 1 6 22 28 355 348 342 334 333 278 289 258 220 238 238 249 258 256 239 180 121 214 261 294 242 191 167 168 146 61 295 282 298 285 216 242 256 247 244 230 208 204 221 26 31 11 10 322 280 279 269 265 277 290 299 306 329 101 218 279 343 289 302 346 44 80 105 124 123 114 119 118 113 114 113 112 105 94
349 348 349 345 343 344 344 345 355 2 4 28 54 15 358 346 336 339 352 237 288 277 227 219 214 235 242 197 166 155 154 200 193 283 224 163 159 178 157 193 273 292 277 264 245 242 251 254 248 185 149 145 116 338 341 16 345 284 238 232 246 251 215 242 272 310 337 341 312 69 18 320 329 357 62 61 71 101 108 102 102 109 118 120 109 100 94 95
348 347 346 345 343 341 342 345 3 357 360 68 37 353 347 341 333 339 10 79 302 285 237 218 212 232 204 144 158 162 126 246 217 205 183 163 148 104 334 238 232 244 270 288 287 269 250 245 198 101 94 105 118 275 250 154 236 295 250 198 186 137 95 274 320 9 20 339 303 84 37 296 320 323 254 89 85 85 80 107 115 120 120 116 104 98 95 96
346 345 344 345 343 340 343 359 347 346 349 40 0 339 333 332 329 337 39 64 320 277 233 169 197 194 173 153 166 97 49 299 252 180 162 161 154 135 102 313 282 241 282 303 298 278 247 242 124 119 132 107 103 278 237 157 130 301 256 144 91 65 29 352 13 48 79 282 278 133 164 255 311 303 261 132 106 90 67 114 127 129 121 111 105 105 107 103
344 345 343 342 343 343 343 316 331 339 337 333 337 329 327 328 330 341 61 46 323 269 237 321 339 161 178 195 157 87 62 260 274 193 160 166 166 114 130 257 303 273 275 20 354 283 258 335 30 81 103 91 68 341 268 143 105 230 244 130 65 33 341 301 330 347 213 241 308 5 114 196 287 276 249 114 111 116 126 137 138 130 119 108 106 106 108 105
342 343 341 338 341 340 325 304 323 330 330 320 319 322 326 333 346 45 85 54 289 269 280 289 353 170 201 189 157 141 216 211 304 284 191 174 177 79 114 227 212 253 252 114 296 274 259 63 119 105 86 93 134 217 230 99 97 234 243 347 21 325 278 285 271 263 281 349 308 318 72 134 261 275 297 105 125 150 162 162 152 136 126 116 110 104 102 101
341 341 339 335 336 334 312 302 310 317 329 320 319 323 326 345 27 58 83 93 269 294 334 355 2 268 306 119 196 257 260 153 175 255 174 169 197 113 178 221 188 261 260 160 209 260 245 192 177 140 120 175 198 213 182 111 161 244 267 332 7 43 30 28 92 170 31 15 262 257 105 127 265 283 283 153 156 185 192 181 164 148 133 119 110 106 105 103
341 340 338 334 333 330 310 299 298 334 333 319 320 320 318 9 50 62 61 256 284 299 195 64 298 283 73 97 266 263 244 223 205 201 130 214 268 103 186 213 103 345 305 183 216 248 255 222 181 148 169 186 181 209 195 144 206 286 320 326 6 26 25 36 57 84 68 304 259 232 150 143 248 271 232 213 194 183 184 184 168 138 118 113 113 115 114 109
340 340 336 331 328 323 303 292 298 341 329 321 322 320 340 20 60 89 160 242 271 308 358 11 289 316 92 218 281 248 225 263 235 168 208 261 348 18 2 8 38 32 353 342 293 289 331 54 234 225 177 145 109 5 307 15 35 30 43 53 19 347 4 25 358 36 89 260 261 232 169 147 210 256 240 236 209 169 161 159 156 139 125 127 126 123 124 124
337 338 333 325 321 306 281 283 297 306 317 324 327 347 78 31 38 120 246 266 302 326 340 331 306 329 323 314 312 213 198 299 275 187 199 205 225 257 176 187 170 46 329 288 298 326 333 252 256 279 167 130 105 59 334 4 34 55 69 63 49 334 356 9 320 354 174 251 254 214 175 163 231 245 243 230 192 155 149 152 157 145 131 132 129 127 131 129
333 334 331 321 312 300 290 295 285 266 309 323 334 50 78 70 251 242 272 315 324 299 319 318 312 317 318 326 301 230 172 289 249 212 219 206 227 262 251 218 180 128 245 238 353 351 332 304 306 47 246 116 111 119 317 333 20 66 96 99 111 102 34 285 278 315 260 269 272 225 194 243 276 279 280 242 164 150 148 150 155 139 130 135 133 126 123 117
333 330 329 320 308 303 296 281 236 241 308 326 24 61 59 89 229 264 317 321 257 271 309 304 304 308 303 272 249 205 52 280 230 153 262 318 10 286 292 262 173 133 126 106 59 83 68 323 303 49 331 305 137 163 173 160 122 157 155 132 132 147 148 220 232 229 254 274 294 275 196 208 219 263 295 319 102 113 120 135 136 121 123 130 122 117 122 121
335 329 329 322 309 307 276 200 198 229 298 346 66 67 84 187 245 264 309 294 299 316 311 301 300 308 312 294 277 76 76 269 320 29 309 291 229 230 274 332 129 123 103 91 226 140 103 238 264 322 9 259 255 222 157 117 76 267 127 95 113 178 153 173 213 205 223 283 299 297 205 219 204 248 296 8 45 37 40 55 94 107 113 115 116 129 135 129
338 336 337 328 317 322 148 169 183 203 267 58 68 67 174 205 223 184 252 298 323 306 315 327 336 16 332 319 336 6 16 333 350 13 321 264 261 277 289 12 25 91 122 128 187 96 76 262 282 333 359 331 300 245 161 123 146 281 17 133 221 176 136 133 269 280 58 51 279 282 203 296 325 290 315 15 38 23 33 52 63 80 90 97 117 142 147 148
341 341 338 338 347 54 146 168 184 192 48 76 93 216 224 217 184 186 269 325 306 303 27 5 321 32 358 338 339 349 357 351 0 5 314 300 332 324 358 31 10 7 126 132 165 179 138 274 293 325 349 325 323 329 141 128 129 125 213 227 232 65 93 113 140 340 34 114 277 280 185 244 202 233 306 345 70 9 3 78 76 77 96 104 144 151 149 165
340 337 331 351 23 72 136 173 182 165 61 67 107 235 229 252 238 217 292 338 308 335 57 137 265 34 51 23 325 328 354 4 357 351 322 331 322 309 42 53 20 0 334 104 91 173 123 336 291 310 9 316 330 33 8 327 55 119 178 193 101 74 344 36 121 313 338 253 289 305 259 228 206 215 252 231 196 190 206 159 119 133 139 159 203 168 149 160
346 343 335 18 52 67 125 162 165 82 59 66 236 252 240 256 297 306 345 9 343 349 36 218 312 4 57 89 290 304 350 25 347 347 350 346 312 323 22 59 78 14 18 87 97 233 101 85 282 299 6 331 338 21 328 303 339 28 49 27 62 154 172 197 170 158 181 231 266 301 304 258 235 215 200 210 207 184 183 186 185 186 176 186 195 178 168 168
8 6 320 57 82 85 133 148 86 54 80 190 202 216 272 200 303 343 28 37 14 339 354 327 356 356 328 359 320 294 345 10 346 343 282 303 321 337 354 5 146 21 28 66 78 339 46 85 251 290 346 19 346 317 242 250 266 8 43 15 340 338 104 354 295 150 145 181 211 225 279 262 250 215 193 204 207 190 183 187 194 192 190 199 195 185 181 177
10 20 288 36 38 345 338 58 38 88 140 265 190 196 314 351 327 8 37 36 41 106 4 348 3 0 319 334 339 319 332 331 339 2 248 311 4 339 320 355 52 318 26 45 56 79 49 115 210 297 340 358 253 256 269 263 221 156 124 136 222 227 72 53 302 298 103 145 187 184 252 266 257 209 192 197 195 198 193 185 195 196 191 203 208 195 179 177
30 3 284 348 353 332 6 53 296 187 149 247 170 113 304 10 9 20 26 19 41 52 9 0 5 353 324 325 344 352 357 318 289 309 234 307 14 324 325 1 7 16 92 57 300 194 142 109 103 279 264 259 269 273 311 339 116 120 108 123 145 113 100 127 215 277 332 305 235 176 237 265 269 215 189 191 191 203 204 189 193 197 194 206 215 199 186 189
39 296 294 350 360 4 93 39 316 348 300 253 206 58 343 53 28 28 30 26 44 39 21 13 3 359 336 313 316 7 30 331 277 298 314 342 10 351 0 13 5 359 68 58 290 261 105 91 72 294 285 297 300 306 9 30 61 74 5 24 75 3 138 149 173 183 285 284 268 344 271 266 280 250 188 203 204 201 205 193 187 193 202 213 210 196 197 204
322 274 282 346 359 22 100 30 322 333 315 310 7 0 341 27 106 83 19 334 112 83 91 48 359 2 327 316 325 31 65 353 328 14 9 333 329 343 8 16 1 349 3 264 221 215 313 128 103 6 340 337 338 349 351 354 35 82 276 282 295 283 133 100 84 128 217 245 181 175 252 258 278 332 67 351 223 195 207 198 184 192 207 219 216 201 196 197
318 285 256 332 356 23 91 116 45 347 321 343 12 3 358 359 40 79 43 204 110 106 146 179 206 190 332 343 352 15 74 131 306 1 5 323 309 336 10 5 346 335 329 309 271 139 235 193 127 102 284 285 299 277 258 303 332 305 254 264 275 262 196 173 96 146 215 242 173 171 231 261 289 342 15 322 226 164 210 210 197 199 202 212 213 198 190 192
0 2 300 325 356 28 62 77 59 38 338 351 356 351 8 322 308 3 59 69 58 70 174 209 220 96 30 23 0 335 15 110 184 308 336 323 314 332 353 346 331 338 346 327 309 112 113 174 157 156 175 199 220 237 237 249 300 288 280 281 277 265 239 190 135 167 201 215 212 210 219 253 278 276 266 273 271 130 231 221 209 200 186 186 186 182 188 204
64 11 1 343 333 0 15 13 30 14 323 319 313 289 291 284 294 341 26 56 74 66 27 5 36 48 19 21 14 299 325 347 228 260 312 310 307 316 328 329 323 352 9 358 345 60 104 278 232 172 193 219 219 237 256 254 247 257 271 279 278 277 264 193 194 218 188 168 256 242 204 222 249 226 214 233 267 341 265 233 214 201 182 167 162 173 197 230
10 320 86 80 288 332 356 333 338 334 311 298 258 248 269 284 321 1 354 358 59 69 48 355 21 39 349 301 153 258 323 339 316 319 322 309 320 325 328 324 328 358 17 15 358 43 126 231 240 182 217 247 233 239 252 246 243 251 259 264 270 277 269 240 231 226 185 180 243 240 204 212 235 225 211 203 184 205 229 223 206 186 174 166 155 163 192 211
7 1 333 24 69 265 275 291 303 309 307 308 300 277 280 291 311 302 336 14 10 53 100 104 353 6 337 326 128 227 309 343 313 318 326 319 322 323 316 310 318 357 19 30 14 36 82 258 237 184 240 270 260 258 259 256 264 269 265 259 259 262 257 247 241 228 203 211 237 241 234 240 242 227 212 200 198 215 224 210 177 158 168 175 168 172 186 196
27 310 318 350 329 272 265 288 309 312 316 327 330 319 336 7 338 304 293 113 164 302 96 114 328 331 327 328 357 255 259 234 252 264 276 317 318 305 283 276 275 323 333 323 67 82 121 277 277 123 306 284 276 277 284 288 270 264 269 265 261 265 261 248 239 228 214 230 244 246 254 268 260 221 204 201 204 210 200 186 175 175 182 177 168 178 186 184
2 305 311 334 298 293 288 300 328 344 330 340 352 322 335 357 345 320 306 125 134 139 121 131 280 315 321 321 312 274 265 258 256 255 244 245 260 263 269 266 267 292 294 269 202 155 167 252 327 22 345 278 268 278 303 321 315 286 274 259 250 254 250 234 231 219 197 206 233 243 245 261 259 223 204 213 193 173 179 186 180 186 187 166 161 184 193 168
7 343 349 50 283 309 332 322 333 10 333 317 327 310 309 345 357 11 349 346 104 117 145 176 186 264 300 298 293 282 278 276 271 269 261 252 256 258 258 262 264 265 260 243 214 185 169 172 36 22 282 268 268 286 319 346 348 303 266 232 224 243 252 269 274 243 200 166 152 183 225 239 231 178 175 215 199 174 185 193 178 181 186 170 165 177 164 148
Height
819 818 817 816 815 814 813 812 811 810 809 808 807 807 806 805 804 803 802 801 801 800 800 799 799 798 798 797 796 795 794 794 793 792 792 790 788 788 787 787 787 787 787 787 787 787 786 786 786 786 787 788 788 787 785 785 786 791 799 807 812 810 806 799 795 793 791 789 784 780 780 780 778 774 765 760 761 760 758 758 757 753 749 750 750 753 758 765
819 817 816 815 814 813 812 811 810 809 809 808 807 806 805 804 803 803 802 801 800 800 800 799 799 798 797 797 796 795 794 793 792 791 789 788 787 787 786 786 786 786 786 786 786 787 787 787 787 788 788 789 788 786 787 785 785 792 799 805 806 801 795 789 787 786 785 787 784 780 779 779 779 776 768 770 774 767 767 769 765 761 757 755 754 755 761 769
818 817 816 815 813 812 811 810 810 809 808 807 806 805 805 804 803 802 801 800 800 799 800 799 799 798 797 797 795 795 794 792 792 789 787 787 787 786 786 786 786 786 786 786 786 786 787 786 787 789 789 790 788 787 789 786 786 791 796 804 800 791 788 784 783 783 782 783 782 780 777 778 777 773 771 776 777 773 776 776 771 769 767 764 761 760 765 774
818 817 815 814 813 812 811 810 809 808 807 807 806 805 804 803 802 801 800 800 799 799 799 799 799 798 798 796 796 795 793 794 792 788 786 786 786 785 785 786 786 786 786 785 785 785 786 785 786 787 789 790 787 786 790 787 788 789 792 798 790 785 787 783 780 780 779 779 780 778 776 777 775 771 772 776 778 778 778 774 770 769 766 764 763 762 764 773
818 817 815 814 812 811 810 809 808 807 807 806 805 804 803 802 802 801 800 799 798 799 799 799 798 797 797 796 796 794 794 800 794 786 786 786 785 785 785 785 786 786 785 785 785 784 784 784 784 785 787 789 788 788 789 784 785 789 789 788 784 783 786 780 776 777 776 776 777 777 777 775 773 772 772 776 780 779 776 771 767 764 761 760 760 760 763 771
818 816 815 813 812 811 810 809 807 806 806 805 804 803 802 801 801 800 800 799 798 799 798 798 798 797 797 795 795 793 797 802 791 785 786 785 785 785 785 786 785 785 785 785 784 784 784 783 785 787 788 788 789 789 787 781 782 789 788 783 782 783 783 779 776 777 776 776 777 776 775 772 773 775 772 773 776 772 770 768 765 762 759 759 763 765 766 770
818 816 815 813 812 811 809 808 807 806 805 804 803 801 801 800 800 800 799 798 798 798 798 798 797 797 796 795 795 794 797 796 786 785 786 784 785 784 785 785 784 785 784 784 784 784 785 786 787 787 789 790 790 788 785 781 780 786 786 781 780 779 779 777 775 775 776 776 775 773 772 771 775 776 772 772 770 766 767 767 764 761 759 761 767 771 770 769
818 816 814 813 811 810 809 807 806 805 804 802 801 800 800 799 799 799 798 798 798 798 798 797 797 797 796 795 794 795 796 790 783 784 785 784 785 784 784 784 784 784 783 783 784 784 786 787 786 785 790 791 788 786 784 783 781 783 784 781 779 777 776 775 774 774 774 774 772 772 773 772 772 773 773 771 768 764 765 768 765 761 761 763 768 772 771 771
818 816 814 813 811 809 808 807 805 804 803 801 800 799 799 798 798 798 798 798 797 798 797 797 797 796 796 794 795 797 792 784 782 783 784 784 784 784 784 783 783 783 782 783 782 783 785 785 784 784 788 789 786 786 784 786 787 783 782 780 778 777 775 773 774 773 774 773 771 774 774 771 768 771 773 769 766 764 764 767 765 763 765 766 768 770 771 772
818 816 814 812 810 809 807 806 805 803 802 800 799 798 798 797 798 798 797 797 797 797 797 797 796 795 796 793 796 799 788 781 783 783 783 783 783 783 783 782 783 782 782 782 781 782 782 782 781 780 783 786 786 786 785 786 786 781 779 777 775 776 774 773 774 772 773 773 771 775 776 771 768 772 775 769 765 763 763 767 766 767 771 770 770 769 769 770
818 816 814 812 810 809 807 805 804 802 801 799 798 797 797 797 797 797 797 797 797 797 797 796 795 795 795 794 798 797 784 781 783 782 783 782 782 782 782 782 782 782 781 781 781 781 780 780 778 779 784 786 786 786 783 781 781 779 777 777 776 776 775 773 773 771 772 773 770 772 773 772 770 773 773 767 765 763 763 768 768 770 774 774 773 772 771 771
818 816 814 812 810 808 806 805 803 802 800 799 798 797 796 796 797 797 796 796 797 797 796 796 796 795 794 795 796 790 781 782 782 781 782 781 781 781 781 782 781 781 781 780 781 779 780 779 778 782 785 785 788 789 783 778 779 779 778 782 780 779 779 774 773 771 772 774 768 770 778 777 775 773 768 765 765 763 764 769 771 773 775 775 776 775 774 773
818 816 814 812 810 808 806 804 802 801 799 798 797 796 796 796 796 796 796 796 796 796 796 796 795 794 795 794 787 782 780 781 781 781 781 780 780 780 780 781 780 780 780 779 779 778 779 778 778 782 782 784 788 787 781 777 780 780 780 784 786 789 786 775 772 771 772 774 766 772 790 786 776 771 765 765 764 762 766 769 771 773 774 776 778 778 778 777
818 816 814 812 810 808 806 804 802 801 799 798 797 796 796 795 796 796 795 796 795 795 795 795 795 794 795 791 781 779 780 780 781 780 780 780 780 780 779 779 780 780 779 779 778 778 778 777 778 780 781 783 784 782 782 783 783 784 785 787 791 799 791 774 771 772 773 774 765 774 793 787 775 769 763 764 762 761 766 768 770 773 775 778 781 781 782 781
818 816 814 812 810 808 806 804 802 800 799 798 797 796 795 795 795 795 795 795 795 795 794 794 794 793 794 789 779 778 779 779 779 778 779 779 779 779 778 778 779 779 778 778 777 777 777 777 779 783 783 781 782 787 792 793 788 788 795 797 795 798 792 778 771 771 773 773 767 775 791 787 775 769 765 764 761 760 766 768 768 772 776 779 781 782 784 785
818 816 814 812 810 808 806 803 801 800 798 797 796 796 795 795 794 794 795 794 794 794 793 794 793 793 796 790 779 778 778 778 777 777 778 778 777 778 778 778 777 777 778 777 777 777 776 778 780 783 784 784 788 794 799 802 799 795 800 803 798 797 795 784 773 769 770 773 771 775 786 786 776 769 768 766 762 762 766 767 768 773 777 779 781 783 784 786
818 816 813 811 809 808 805 803 801 799 798 797 796 795 794 794 793 793 793 793 794 792 792 793 792 794 794 785 780 779 777 776 776 776 777 776 777 777 776 777 776 776 776 776 777 777 778 780 782 784 786 789 792 796 806 813 808 801 801 801 799 797 797 792 782 772 769 773 775 775 780 783 775 770 769 768 767 766 767 769 771 777 780 780 782 784 785 787
818 816 813 811 809 807 805 804 801 799 798 797 795 795 794 793 792 791 791 792 792 791 793 793 793 799 795 783 781 779 775 775 776 775 775 775 776 776 776 776 776 776 778 779 779 780 782 783 785 790 791 793 794 799 811 812 805 802 801 800 799 796 796 795 788 777 771 774 777 778 781 780 775 772 771 770 770 770 770 773 777 780 783 784 785 786 787 788
818 815 813 811 809 807 805 803 801 800 798 797 796 794 793 792 790 789 790 791 792 794 795 793 793 798 794 782 777 776 774 774 775 774 774 774 774 775 775 775 776 778 782 786 785 783 784 787 791 796 798 795 794 798 803 800 796 796 796 798 800 798 795 790 785 776 773 779 780 781 782 778 774 771 770 770 769 771 776 778 779 781 783 786 787 787 788 789
817 815 812 810 808 806 805 803 802 800 798 797 795 793 794 795 795 794 791 789 791 791 791 790 789 789 786 779 775 774 774 773 773 773 773 773 774 775 775 775 778 781 785 789 790 784 784 794 799 798 796 792 790 791 792 790 788 789 792 795 796 798 796 787 782 775 772 780 782 780 781 777 774 771 768 771 772 775 780 782 782 783 785 786 787 788 789 790
817 815 812 810 808 806 805 803 801 800 799 798 796 796 799 801 804 802 794 789 786 785 785 783 783 784 780 777 774 773 774 774 773 771 772 772 773 777 778 778 783 788 787 786 788 785 787 798 799 791 788 786 785 785 784 783 784 786 790 793 795 796 794 784 780 776 772 780 783 779 782 779 775 773 771 771 775 779 781 783 786 786 786 787 787 789 789 790
817 814 812 810 807 806 804 802 801 800 799 798 797 798 800 800 802 800 796 793 784 779 782 779 779 780 775 773 773 772 775 778 776 772 770 772 774 779 781 780 786 790 786 785 790 793 797 799 790 782 783 783 782 779 779 782 784 787 790 796 798 794 790 785 780 775 772 779 784 781 782 781 778 776 773 773 776 780 779 780 784 785 787 789 789 790 790 791
817 814 812 809 806 805 803 802 801 799 799 798 798 799 799 798 798 795 796 798 787 777 777 777 777 777 773 772 770 770 776 779 779 774 769 771 775 778 780 782 786 788 787 789 793 799 802 794 780 776 780 781 781 778 779 783 786 791 793 798 800 792 793 794 784 777 774 777 782 782 783 783 781 778 776 777 777 780 781 781 783 784 786 788 789 790 791 794
817 814 812 809 806 804 802 801 800 799 799 798 798 799 798 797 796 795 794 797 792 778 772 771 772 773 772 770 768 771 776 776 776 774 768 772 776 777 779 781 785 788 787 787 791 796 795 782 772 773 776 777 780 780 783 788 791 792 792 796 797 791 791 792 786 781 778 779 778 781 789 789 785 783 781 780 780 783 785 784 785 786 786 787 788 790 793 795
816 814 811 808 806 803 801 801 799 800 799 798 799 797 797 796 794 794 795 800 799 782 770 769 770 770 768 768 768 770 774 773 772 771 767 769 774 777 780 780 783 789 788 786 788 792 786 775 770 773 774 775 781 784 785 788 794 794 789 789 790 788 787 787 787 787 792 793 781 783 801 801 791 787 785 783 784 788 789 787 788 788 786 786 789 793 795 796
816 814 811 808 806 803 800 799 799 799 798 797 798 796 796 795 793 793 796 807 806 784 774 774 772 771 768 769 768 768 778 778 768 766 767 768 770 773 781 782 781 786 785 782 785 785 778 771 770 773 775 777 783 787 783 783 794 798 789 784 783 784 786 787 787 792 801 802 786 784 802 807 797 789 785 786 789 792 792 790 788 787 785 786 790 794 795 796
815 813 810 808 806 803 801 800 800 799 798 798 796 796 795 792 793 791 797 816 809 782 776 777 773 771 769 768 767 773 786 780 767 766 766 768 768 769 780 784 783 784 779 782 791 785 775 775 775 774 777 781 785 789 784 781 792 796 785 781 782 783 786 786 787 793 797 795 790 787 794 804 803 792 787 789 793 795 794 792 790 787 786 787 789 792 793 795
814 812 810 808 806 805 802 801 801 798 798 798 795 795 793 791 792 792 804 822 804 776 775 776 770 769 767 767 767 772 778 773 774 773 762 765 768 770 780 782 781 783 776 786 799 787 775 779 778 776 780 784 785 786 781 780 789 788 779 778 781 782 785 785 787 793 794 796 800 795 792 805 808 794 789 792 795 798 795 792 791 788 787 787 789 792 793 794
812 810 809 806 805 804 802 801 800 798 797 796 794 794 792 791 791 795 812 819 794 774 775 774 772 770 768 770 772 771 770 770 776 772 762 765 767 768 778 777 777 781 777 783 792 784 775 774 771 774 780 781 781 779 774 777 784 780 775 777 779 782 785 788 791 793 797 804 806 799 794 805 810 797 791 794 795 797 795 791 790 787 787 787 789 792 793 795
810 809 807 805 803 802 801 800 798 797 797 794 794 793 790 792 796 808 824 814 791 779 776 775 776 773 772 777 778 774 773 772 770 768 767 769 767 768 772 771 773 780 780 780 783 779 773 769 768 770 773 774 774 774 772 773 776 774 777 782 783 787 789 794 799 798 805 811 806 799 794 800 810 800 791 791 789 788 790 791 790 787 788 789 790 793 793 795
809 807 806 803 802 801 800 799 797 797 796 794 794 790 791 797 804 820 823 801 789 785 778 779 779 773 776 780 781 777 775 773 769 770 773 772 773 774 775 777 779 784 787 785 782 778 773 772 771 767 766 768 771 774 773 772 773 776 783 787 792 797 797 801 805 804 814 815 802 799 796 799 809 800 787 786 782 781 785 789 789 787 788 790 791 793 793 794
807 805 804 802 800 799 799 798 796 796 795 794 793 790 796 807 814 821 811 793 796 796 785 785 782 778 779 780 780 777 776 776 771 771 775 775 778 778 779 783 784 791 798 793 787 783 777 775 772 767 765 766 772 779 779 776 776 780 787 793 803 811 811 813 813 813 819 812 798 797 798 801 804 792 782 783 781 781 783 784 784 784 787 790 791 793 793 794
805 803 801 800 798 797 796 796 795 796 794 793 793 793 802 817 820 815 805 798 803 799 789 787 785 782 782 783 781 776 775 776 772 772 773 774 779 778 777 778 777 787 796 794 793 792 786 779 772 772 771 767 771 782 787 785 783 785 789 797 808 816 822 825 822 821 820 808 796 794 797 802 800 790 785 783 781 781 780 780 781 781 785 789 789 792 792 792
803 800 799 796 795 794 794 795 795 795 794 793 794 799 809 820 816 808 806 802 797 793 790 790 788 785 783 784 781 774 777 778 772 774 775 775 781 782 777 776 775 780 787 793 797 797 800 794 779 777 777 770 770 775 779 781 783 785 785 792 803 808 816 822 819 818 816 808 800 796 799 804 799 793 791 786 781 780 779 779 779 780 784 787 789 791 792 792
801 798 796 793 792 793 792 794 794 795 795 794 798 807 815 819 814 809 808 801 795 794 792 789 789 790 787 784 779 774 778 780 773 775 779 779 783 783 779 777 775 777 783 794 797 795 803 799 780 774 773 770 772 770 767 776 786 786 783 791 799 797 800 810 812 810 811 810 806 800 802 802 796 792 790 787 785 783 782 782 781 782 785 787 790 792 791 792
799 796 794 792 791 792 792 794 794 795 795 795 803 812 813 811 809 807 803 797 796 797 795 793 791 793 794 789 784 780 778 779 779 781 782 780 781 781 778 777 775 775 779 789 794 796 802 796 779 774 773 769 772 769 765 774 785 787 787 792 791 785 790 803 810 808 810 815 810 803 803 801 797 793 789 787 787 786 786 785 785 787 787 789 791 791 792 793
798 795 794 791 790 791 793 794 795 795 795 798 807 811 807 803 801 800 796 794 794 794 798 803 796 794 801 798 794 790 784 782 784 787 787 784 783 781 778 778 776 775 776 781 789 794 799 797 783 777 779 773 769 769 767 768 774 784 791 787 783 785 789 797 809 812 815 820 811 803 804 804 802 799 792 789 789 788 788 786 787 789 787 789 790 790 791 792
800 798 796 793 792 792 793 795 795 796 797 803 810 809 804 801 798 795 793 792 793 793 799 806 799 794 801 804 801 794 789 791 792 792 792 789 786 781 779 781 779 777 775 776 785 789 792 798 790 781 784 779 769 772 776 772 770 777 782 779 783 796 799 800 809 814 818 822 814 806 808 806 801 797 792 790 788 787 788 786 787 788 786 788 789 788 790 790
802 800 798 795 794 794 794 796 795 797 801 808 812 809 803 800 797 793 793 792 793 796 800 804 800 797 799 801 802 796 792 796 796 796 795 793 789 782 777 781 782 780 776 774 783 788 788 798 798 786 784 781 775 780 788 785 777 775 778 779 783 793 798 800 803 806 812 819 816 813 813 806 795 789 787 786 785 786 787 785 785 786 786 787 787 786 788 789
805 804 801 797 797 797 796 796 797 801 807 809 810 806 800 799 797 793 793 794 794 798 801 801 801 802 800 798 799 796 794 796 796 797 796 791 789 785 778 778 780 780 777 776 783 787 787 796 799 790 786 787 787 788 790 789 786 782 785 789 789 789 792 796 798 798 804 812 814 815 815 801 785 782 781 781 785 785 784 783 783 783 785 785 784 784 786 788
809 809 804 798 798 798 797 799 802 805 808 807 805 803 799 799 798 796 795 794 794 796 799 800 801 803 802 800 800 798 797 797 796 797 796 791 792 791 782 776 778 779 779 781 786 788 790 797 800 797 794 795 793 786 783 783 783 783 787 792 793 792 794 802 805 801 800 805 808 813 814 796 778 779 779 778 783 783 780 781 782 783 784 783 782 782 784 785
813 812 805 798 798 796 798 804 805 805 806 805 802 800 798 798 799 799 797 796 796 797 797 799 801 802 802 801 800 800 800 800 797 797 796 793 793 791 783 778 778 777 779 786 789 786 788 796 802 802 799 795 790 783 780 778 777 780 786 790 792 792 796 805 810 806 804 805 803 807 811 794 776 777 779 777 780 780 780 782 781 782 782 780 780 781 782 783
818 813 802 797 798 796 800 808 808 805 805 801 798 798 797 797 800 800 799 799 800 801 802 803 804 805 804 801 799 800 803 801 798 797 796 794 792 788 785 783 782 780 782 788 789 785 788 796 802 802 798 791 785 782 781 778 779 786 789 788 791 793 793 797 802 806 808 806 802 808 811 794 776 776 778 777 778 778 779 780 779 780 780 778 779 780 781 783
821 817 805 800 798 797 804 813 813 810 807 803 801 801 798 797 800 801 801 802 801 803 806 806 806 807 807 803 799 800 804 804 801 799 799 799 794 788 786 786 786 787 786 787 787 786 790 798 802 805 806 801 795 793 791 786 787 793 792 789 789 789 791 794 799 805 809 804 801 808 809 792 778 777 778 777 778 777 778 778 777 777 778 778 778 779 780 782
821 817 809 803 800 800 807 814 815 815 812 809 807 805 802 800 799 798 800 801 801 802 805 806 804 806 807 805 803 802 803 805 805 802 801 801 796 789 788 789 788 788 786 784 783 783 790 797 798 803 813 815 810 805 800 796 794 793 792 790 789 788 791 795 799 805 808 802 799 803 801 789 780 779 779 778 778 778 777 777 777 776 776 777 777 778 780 780
822 819 816 811 806 806 811 812 814 817 816 814 812 807 807 806 801 797 797 801 802 801 802 804 803 805 807 808 809 808 805 805 806 805 804 804 799 793 790 790 788 787 786 784 782 783 790 796 794 797 804 807 805 800 795 795 797 796 793 791 790 789 790 793 798 802 800 797 797 795 791 788 783 780 779 777 777 779 778 778 777 775 776 776 776 778 778 778
826 825 824 822 817 814 815 814 816 819 817 817 814 809 807 807 804 800 798 801 804 802 803 805 805 808 810 810 812 812 808 806 806 806 806 805 801 796 791 790 789 787 785 785 783 784 792 796 794 795 796 795 796 795 792 795 797 795 793 790 788 787 789 794 797 794 791 796 798 789 784 787 783 776 775 774 775 777 778 777 775 773 774 775 775 776 777 778
827 826 825 827 826 824 823 820 820 820 818 815 812 808 807 808 807 806 803 802 803 804 806 809 809 810 811 811 813 813 811 810 809 808 807 805 803 800 796 791 789 786 786 787 786 787 795 796 795 796 795 792 794 794 793 794 794 791 791 790 788 786 788 791 790 785 786 792 789 780 779 782 777 772 772 772 772 773 773 774 772 771 773 774 774 776 777 777
829 829 826 826 828 829 828 824 822 821 818 814 811 808 808 809 808 808 806 805 807 807 808 812 814 812 810 809 812 813 813 814 814 811 808 807 807 805 802 798 792 788 788 790 790 791 796 796 794 795 795 793 792 791 790 792 793 791 789 788 786 785 784 784 783 780 781 783 778 775 779 778 772 770 770 769 769 769 771 772 771 770 772 773 773 774 775 776
832 833 831 830 829 828 826 823 822 822 818 815 813 812 810 811 811 808 805 805 809 809 809 813 815 813 811 810 811 813 812 812 814 812 809 810 809 807 805 801 795 792 791 791 792 794 798 798 794 793 797 796 791 787 788 791 794 792 788 785 782 780 780 780 779 777 778 779 776 777 781 779 770 767 768 768 770 772 772 772 770 769 771 772 773 773 773 775
833 833 832 833 832 827 824 823 822 822 820 816 816 814 813 813 813 810 806 804 807 810 811 813 814 812 811 811 811 812 810 808 809 808 805 807 807 804 803 799 795 796 795 793 793 794 797 799 795 795 802 799 791 788 789 790 791 790 786 781 777 775 775 774 772 770 771 773 774 778 781 776 766 764 767 768 768 770 769 768 768 769 771 771 771 772 772 774
832 832 830 832 833 827 824 825 823 822 820 818 817 815 814 815 813 811 810 807 806 809 810 810 811 811 812 812 811 809 807 805 804 801 800 800 799 798 798 795 793 795 795 792 792 791 793 797 797 800 805 800 792 791 791 792 794 789 778 773 771 771 771 769 767 766 766 767 771 774 772 765 761 764 766 765 764 765 765 765 767 769 770 769 770 770 772 774